This is the latest recevied weather packets stored in our database for station/object PP5CFL-2. If no packets are shown the sender has not sent any weather packets the latest 10 day(s).
| Time | Temp. | Humidity | Pressure | Rain* | Wind** | Luminosity | Snow |
|---|---|---|---|---|---|---|---|
| 1778170430 | 28.89° C | 64% | 1007.4 hPa | - | - | - | - |
| 1778170130 | 28.89° C | 65% | 1007.3 hPa | - | - | - | - |
| 1778169830 | 28.89° C | 66% | 1007.6 hPa | - | - | - | - |
| 1778169530 | 28.89° C | 66% | 1007.4 hPa | - | - | - | - |
| 1778169230 | 28.89° C | 67% | 1007.8 hPa | - | - | - | - |
| 1778168930 | 28.33° C | 67% | 1007.8 hPa | - | - | - | - |
| 1778168630 | 28.89° C | 67% | 1007.9 hPa | - | - | - | - |
| 1778168330 | 29.44° C | 65% | 1007.9 hPa | - | - | - | - |
| 1778168030 | 28.89° C | 68% | 1008.1 hPa | - | - | - | - |
| 1778167730 | 28.89° C | 68% | 1008.4 hPa | - | - | - | - |
| 1778167430 | 29.44° C | 68% | 1008 hPa | - | - | - | - |
| 1778167130 | 28.89° C | 70% | 1008.5 hPa | - | - | - | - |
| 1778166830 | 29.44° C | 71% | 1008.6 hPa | - | - | - | - |
| 1778166530 | 28.89° C | 70% | 1008.7 hPa | - | - | - | - |
| 1778166230 | 28.33° C | 72% | 1008.9 hPa | - | - | - | - |
| 1778165930 | 28.33° C | 73% | 1009 hPa | - | - | - | - |
| 1778165630 | 27.78° C | 73% | 1009.2 hPa | - | - | - | - |
| 1778165330 | 28.33° C | 71% | 1009.2 hPa | - | - | - | - |
| 1778165030 | 28.33° C | 73% | 1009.4 hPa | - | - | - | - |
| 1778164730 | 28.33° C | 71% | 1009.5 hPa | - | - | - | - |
| 1778164430 | 28.33° C | 72% | 1009.4 hPa | - | - | - | - |
| 1778164130 | 27.78° C | 73% | 1009.8 hPa | - | - | - | - |
| 1778163830 | 27.78° C | 72% | 1009.8 hPa | - | - | - | - |
| 1778163530 | 28.33° C | 70% | 1009.7 hPa | - | - | - | - |
| 1778163230 | 28.89° C | 70% | 1009.8 hPa | - | - | - | - |
* Rain since midnight (hover to see other rain measurements)
** Current wind speed in m/s (hover to see current wind gust speed)